Change the Weather History Date:

Wednesday, October 31, 2012

  Actual Average (KGVL) Record (KGVL)
Temperature  
Mean Temperature 48 °F 58 °F  
Max Temperature 60 °F 67 °F 84 °F (1950)
Min Temperature 35 °F 48 °F 25 °F (1954)
Degree Days  
Heating Degree Days 18 8  
Month to date heating degree days 145  
Since 1 July heating degree days 158  
Cooling Degree Days 0 1  
Month to date cooling degree days 41  
Year to date cooling degree days 1582  
Moisture  
Dew Point 6 °F    
Average Humidity 25    
Maximum Humidity 56    
Minimum Humidity 4    
Precipitation  
Precipitation 0.00 in 0.10 in 2.88 in (1977)
Month to date precipitation 4.08  
Year to date precipitation 45.01  
Sea Level Pressure  
Sea Level Pressure 29.85 in    
Wind  
Wind Speed 6 mph ()    
Max Wind Speed 13 mph    
Max Gust Speed 23 mph    
Visibility 10.0 miles    
Events      
T = Trace of Precipitation, MM = Missing Value Source: Averaged Metar Reports

Daily Weather History Graph

Daily Weather History Graph

Search for Another Location

Airport or City:

Trip Planner

Search our weather history database for the weather conditions in past years. The results will help you decide how hot, cold, wet, or windy it might be!

Date:

Astronomy

Oct. 31, 2012 Rise Set
Actual Time 7:57 AM EDT 6:44 PM EDT
Civil Twilight 7:31 AM EDT 7:10 PM EDT
Nautical Twilight 7:01 AM EDT 7:40 PM EDT
Astronomical Twilight 6:32 AM EDT 8:09 PM EDT
Moon 8:00 PM EDT (10/31) 9:32 AM EDT (10/31)
Length of Visible Light 11h 39m
Length of Day
10h 47m
Full, 97% of the Moon is Illuminated
Oct 31
Full
Nov 6
Last Quarter
Nov 13
New
Nov 20
First Quarter
Nov 28
Full

Hourly Weather History & Observations

Time (EDT) Temp. Windchill Dew Point Humidity Pressure Visibility Wind Dir Wind Speed Gust Speed Precip Events Conditions
12:15 AM 44.6 °F 40.2 °F 10.4 °F 25% 29.80 in 10.0 mi WNW 8.1 mph - N/A   Clear
12:35 AM 44.6 °F 40.7 °F 10.4 °F 25% 29.80 in 10.0 mi NW 6.9 mph - N/A   Clear
12:55 AM 42.8 °F 39.3 °F 12.2 °F 29% 29.80 in 10.0 mi NW 5.8 mph - N/A   Clear
1:15 AM 42.8 °F 38.0 °F 12.2 °F 29% 29.79 in 10.0 mi WNW 8.1 mph - N/A   Clear
1:35 AM 42.8 °F 40.1 °F 10.4 °F 27% 29.80 in 10.0 mi WNW 4.6 mph - N/A   Clear
1:55 AM 42.8 °F 40.1 °F 12.2 °F 29% 29.80 in 10.0 mi WNW 4.6 mph - N/A   Clear
2:15 AM 42.8 °F 38.6 °F 14.0 °F 31% 29.80 in 10.0 mi West 6.9 mph - N/A   Clear
2:35 AM 42.8 °F 40.1 °F 14.0 °F 31% 29.80 in 10.0 mi WNW 4.6 mph - N/A   Clear
2:55 AM 42.8 °F 38.0 °F 14.0 °F 31% 29.80 in 10.0 mi WNW 8.1 mph - N/A   Clear
3:15 AM 42.8 °F 39.3 °F 14.0 °F 31% 29.81 in 10.0 mi WNW 5.8 mph - N/A   Clear
3:35 AM 42.8 °F 39.3 °F 14.0 °F 31% 29.80 in 10.0 mi West 5.8 mph - N/A   Clear
3:55 AM 42.8 °F 38.6 °F 14.0 °F 31% 29.81 in 10.0 mi WNW 6.9 mph - N/A   Clear
4:15 AM 42.8 °F 38.0 °F 14.0 °F 31% 29.81 in 10.0 mi WNW 8.1 mph - N/A   Clear
4:35 AM 42.8 °F 38.6 °F 14.0 °F 31% 29.81 in 10.0 mi WNW 6.9 mph - N/A   Clear
4:55 AM 42.8 °F 38.0 °F 14.0 °F 31% 29.82 in 10.0 mi WNW 8.1 mph - N/A   Clear
5:15 AM 42.8 °F 39.3 °F 15.8 °F 34% 29.82 in 10.0 mi WNW 5.8 mph - N/A   Clear
5:35 AM 41.0 °F 37.1 °F 17.6 °F 39% 29.83 in 10.0 mi WNW 5.8 mph - N/A   Clear
5:55 AM 41.0 °F 37.1 °F 17.6 °F 39% 29.83 in 10.0 mi WNW 5.8 mph - N/A   Clear
6:15 AM 39.2 °F 35.9 °F 19.4 °F 45% 29.84 in 10.0 mi WNW 4.6 mph - N/A   Clear
6:35 AM 37.4 °F 33.8 °F 19.4 °F 48% 29.84 in 10.0 mi WNW 4.6 mph - N/A   Clear
6:55 AM 37.4 °F 34.9 °F 21.2 °F 52% 29.84 in 10.0 mi WNW 3.5 mph - N/A   Clear
7:15 AM 35.6 °F 31.7 °F 21.2 °F 56% 29.85 in 10.0 mi WNW 4.6 mph - N/A   Clear
7:35 AM 35.6 °F 31.7 °F 21.2 °F 56% 29.85 in 10.0 mi WNW 4.6 mph - N/A   Clear
7:55 AM 35.6 °F 32.8 °F 21.2 °F 56% 29.85 in 10.0 mi WNW 3.5 mph - N/A   Clear
8:15 AM 35.6 °F 32.8 °F 21.2 °F 56% 29.86 in 10.0 mi WNW 3.5 mph - N/A   Clear
8:35 AM 35.6 °F 31.7 °F 21.2 °F 56% 29.87 in 10.0 mi NW 4.6 mph - N/A   Clear
8:55 AM 37.4 °F 33.8 °F 21.2 °F 52% 29.87 in 10.0 mi WNW 4.6 mph - N/A   Clear
9:15 AM 41.0 °F 39.0 °F 19.4 °F 42% 29.88 in 10.0 mi West 3.5 mph - N/A   Clear
9:35 AM 42.8 °F 39.3 °F 19.4 °F 39% 29.88 in 10.0 mi WNW 5.8 mph - N/A   Clear
9:55 AM 44.6 °F 40.2 °F 17.6 °F 34% 29.88 in 10.0 mi WNW 8.1 mph - N/A   Clear
10:15 AM 44.6 °F 40.2 °F 17.6 °F 34% 29.88 in 10.0 mi WNW 8.1 mph - N/A   Clear
10:35 AM 46.4 °F 41.9 °F 15.8 °F 29% 29.89 in 10.0 mi WNW 9.2 mph - N/A   Clear
10:55 AM 46.4 °F 42.9 °F 12.2 °F 25% 29.89 in 10.0 mi WNW 6.9 mph - N/A   Clear
11:15 AM 50.0 °F - 12.2 °F 22% 29.89 in 10.0 mi West 4.6 mph - N/A   Clear
11:35 AM 50.0 °F - 8.6 °F 19% 29.89 in 10.0 mi WNW 10.4 mph 18.4 mph N/A   Clear
11:55 AM 50.0 °F - 6.8 °F 17% 29.89 in 10.0 mi West 6.9 mph 23.0 mph N/A   Clear
12:15 PM 51.8 °F - 8.6 °F 18% 29.89 in 10.0 mi West 12.7 mph 23.0 mph N/A   Clear
12:35 PM 53.6 °F - 3.2 °F 13% 29.88 in 10.0 mi WNW 11.5 mph 19.6 mph N/A   Clear
12:55 PM 53.6 °F - -0.4 °F 11% 29.87 in 10.0 mi WNW 10.4 mph 19.6 mph N/A   Clear
1:15 PM 55.4 °F - -4.0 °F 9% 29.87 in 10.0 mi WNW 9.2 mph 17.3 mph N/A   Clear
1:35 PM 57.2 °F - -9.4 °F 6% 29.86 in 10.0 mi WNW 10.4 mph 19.6 mph N/A   Clear
1:55 PM 57.2 °F - -27.4 °F 4% 29.85 in 10.0 mi WNW 8.1 mph 20.7 mph N/A   Clear
2:15 PM 59.0 °F - -32.8 °F 4% 29.84 in 10.0 mi WNW 9.2 mph 17.3 mph N/A   Clear
2:35 PM - - - N/A% 29.84 in 10.0 mi WNW 9.2 mph 19.6 mph N/A   Clear
2:55 PM - - - N/A% 29.83 in 10.0 mi NW 10.4 mph 19.6 mph N/A   Clear
3:15 PM - - - N/A% 29.83 in 10.0 mi WNW 6.9 mph 19.6 mph N/A   Clear
3:35 PM - - - N/A% 29.83 in 10.0 mi West 9.2 mph 16.1 mph N/A   Clear
3:55 PM - - - N/A% 29.83 in 10.0 mi West 11.5 mph 20.7 mph N/A   Clear
4:15 PM - - - N/A% 29.83 in 10.0 mi WNW 10.4 mph 21.9 mph N/A   Clear
4:35 PM 60.8 °F - -36.4 °F 4% 29.83 in 10.0 mi WNW 10.4 mph 17.3 mph N/A   Clear
4:55 PM 59.0 °F - -36.4 °F 4% 29.83 in 10.0 mi WNW 10.4 mph 19.6 mph N/A   Clear
5:15 PM 59.0 °F - -22.0 °F 4% 29.83 in 10.0 mi West 5.8 mph - N/A   Clear
5:35 PM 59.0 °F - -18.4 °F 4% 29.83 in 10.0 mi West 9.2 mph 19.6 mph N/A   Clear
5:55 PM 57.2 °F - -16.6 °F 4% 29.84 in 10.0 mi West 6.9 mph - N/A   Clear
6:15 PM 55.4 °F - -14.8 °F 5% 29.84 in 10.0 mi WNW 5.8 mph - N/A   Clear
6:35 PM 55.4 °F - -11.2 °F 6% 29.85 in 10.0 mi West 3.5 mph - N/A   Clear
6:55 PM 55.4 °F - -5.8 °F 8% 29.85 in 10.0 mi West 5.8 mph - N/A   Clear
7:15 PM 53.6 °F - -4.0 °F 9% 29.85 in 10.0 mi WNW 3.5 mph - N/A   Clear
7:35 PM 53.6 °F - -2.2 °F 10% 29.85 in 10.0 mi West 3.5 mph - N/A   Clear
7:55 PM 51.8 °F - -0.4 °F 12% 29.85 in 10.0 mi West 5.8 mph - N/A   Clear
8:15 PM 51.8 °F - 1.4 °F 13% 29.86 in 10.0 mi WNW 4.6 mph - N/A   Clear
8:35 PM 51.8 °F - -0.4 °F 12% 29.86 in 10.0 mi West 3.5 mph - N/A   Clear
8:55 PM 50.0 °F - 5.0 °F 16% 29.86 in 10.0 mi WNW 4.6 mph - N/A   Clear
9:15 PM 50.0 °F - 6.8 °F 17% 29.87 in 10.0 mi WNW 5.8 mph - N/A   Clear
9:35 PM 51.8 °F - 5.0 °F 15% 29.87 in 10.0 mi WNW 6.9 mph - N/A   Clear
9:55 PM 51.8 °F - 5.0 °F 15% 29.87 in 10.0 mi WNW 8.1 mph - N/A   Clear
10:15 PM 50.0 °F - 8.6 °F 19% 29.88 in 10.0 mi WNW 6.9 mph - N/A   Clear
10:35 PM 50.0 °F - 8.6 °F 19% 29.88 in 10.0 mi WNW 9.2 mph - N/A   Clear
10:55 PM 50.0 °F - 8.6 °F 19% 29.88 in 10.0 mi WNW 6.9 mph - N/A   Clear
11:15 PM 46.4 °F 44.3 °F 14.0 °F 27% 29.89 in 10.0 mi NW 4.6 mph - N/A   Clear
11:35 PM 44.6 °F 39.7 °F 17.6 °F 34% 29.89 in 10.0 mi WNW 9.2 mph - N/A   Clear
11:55 PM 44.6 °F 40.2 °F 14.0 °F 29% 29.89 in 10.0 mi WNW 8.1 mph - N/A   Clear